SCP
0 0 0 0 0 0 0 0 0 0 0 0 0 0 0 0 0 0 0 0 0 0 0 0 0 0 0 0 0 0 0 0 0 0 0 0 0 0
0 0 0 0 0 0 0 0 0 0 0 0 0 0 0 0 0 0 0 0 0 0 0 0 0 0 0 0 0 0 0 0 0 0 0 0 0 0
0 0 0 0 0 0 0 0 0 0 0 0 0 0 0 0 0 0 0 0 0 0 0 0 0 0 0 0 0 0 0 0 0 0 0 0 0 0
0 0 0 0 0 0 0 0 0 0 0 0 0 0 0 0 0 0 -0 -0 -0 -0 0 0 -0 -0 0 0 0 0 0 0 -0 -0 -0 -0 -0 0
0 0 0 0 0 0 0 0 0 0 0 0 0 0 0 0 0 -0 -0 -0 -0 -0 -0 -0 -0 -0 0 0 0 0 0 -0 0 0 0 0 0 0
0 0 0 0 0 0 0 0 0 0 0 0 0 0 -0 -0 -0 -0 -0 -0 -0 -0 -0 -0 -0 0 0 0 0 0 0 0 0 0 0 0 0 0
0 0 0 0 0 0 0 0 0 0 0 0 -0 -0 -0 -0 -0 -0 -0 -0 -0 -0 -0 0 0 0 0 0 0 0 0 0 0 0 0 0 0 0
0 0 0 0 0 0 0 0 0 0 0 0 -0 -0 -0 -0 -0 -0 -0 -0 -0 -0 0 0 0 0 0 0 -0 0 0 0 0 0 0 0 0 0
0 0 0 0 0 0 0 0 0 0 0 0 0 -0 -0 -0 0 0 0 0 0 0 0 0 0 0 0 0 0 0 0 0 0 0 0 0 0 0
0 0 0 0 0 0 0 0 0 -0 0 0 0 0 0 0 0 0 0 0 0 0 -0 0 0 0 0 0 0 0 0 0 0 0 0 0 0 -0
0 0 0 0 0 0 0 0 0 0 0 0 0 0 0 0 0 0 0 0 0 0 0 0 0 0 0 0 0 0 0 0 0 -0 -0 -0 -0 -0
0 0 0 0 0 0 0 0 0 0 0 0 0 0 0 0 0 0 0 0 0 0 0 0 0 0 0 0 0 0 0 0 0 0 0 0 0 0
0 0 -0 -0 0 0 0 0 0 0 0 0 0 0 0 0 0 0 0 0 0 0 0 0 0 0 0 -0 -0 0 0 0 0 0 0 0 0 0
0 0 -0 0 0 0 0 0 0 0 0 0 0 0 0 0 0 0 0 0 0 0 0 0 0 0 0 0 0 0 0 0 0 0 0 0 0 0
0 0 0 0 0 0 0 0 0 0 0 0 0 0 0 0 0 0 0 0 0 0 0 0 0 0 0 0 0 0 0 0 0 0 0 0 0 0
0 0 0 0 0 0 0 0 0 0 0 0 0 0 0 0 0 0 0 0 0 0 0 0 0 0 0 0 0 0 0 0 0 0 0 0 0 0
0 0 0 0 0 0 0 0 0 0 0 0 0 0 0 0 0 0 0 0 0 0 0 0 0 0 0 0 0 0 0 0 0 0 0 0 0 0
0 0 0 0 0 0 0 0 0 0 0 0 0 0 0 0 0 0 0 0 0 0 0 0 0 0 0 0 0 0 0 0 0 0 0 0 0 0
0 0 0 0 0 0 0 0 0 0 0 0 0 0 0 0 0 0 0 0 0 0 0 0 0 0 0 0 0 0 0 0 0 0 0 0 0 0
0 0 0 0 0 0 0 0 0 0 0 0 0 0 0 0 0 0 0 0 0 0 0 0 0 0 0 0 0 0 0 0 0 0 0 0 0 0
0 0 0 0 0 0 0 0 0 0 0 0 0 0 0 0 0 0 0 0 0 0 0 0 0 0 0 0 0 0 0 0 0 0 0 0 0 0
0 0 0 0 0 0 0 0 0 0 0 0 0 0 0 0 0 0 0 0 0 0 0 0 0 0 0 0 0 0 0 0 0 0 0 0 0 0
0 0 0 0 0 0 0 0 0 0 0 0 0 0 0 0 0 0 0 0 0 0 0 0 0 0 0 0 0 0 0 0 0 0 0 0 0 -0
Wind_Speed_500mb
37 33 27 26 18 12 9 3 2 7 11 15 20 30 38 43 49 50 55 59 62 65 69 72 74 77 80 80 74 64 62 64 67 72 74 73 73 76
33 25 26 26 22 20 17 12 9 4 8 16 28 38 44 50 55 58 61 65 70 71 73 74 74 78 80 73 71 68 71 76 77 77 78 78 80 83
42 36 34 29 23 18 15 12 10 12 18 25 34 39 45 52 57 62 70 75 77 79 78 79 78 76 67 66 68 75 73 74 75 75 75 76 78 80
42 32 31 24 18 18 16 16 16 20 27 35 43 50 55 65 72 77 81 81 86 84 84 81 75 69 65 75 74 76 74 73 75 75 73 74 77 77
36 30 27 21 20 23 28 32 36 39 42 47 53 57 64 73 80 84 86 87 87 87 83 77 73 76 79 80 80 79 80 81 80 77 75 76 76 78
34 32 31 32 35 35 37 39 40 43 48 51 56 62 71 77 84 90 96 93 97 94 81 78 91 92 91 89 85 85 85 82 76 72 75 80 83 85
34 35 36 38 43 45 44 46 49 53 53 54 58 70 76 83 86 89 93 96 97 80 85 108 105 108 102 97 93 91 85 82 80 80 81 82 84 87
41 40 41 43 47 50 49 51 51 52 54 58 65 71 75 75 79 81 86 94 82 81 111 120 114 120 111 109 106 100 89 83 81 83 85 86 88 89
44 47 48 50 50 52 50 54 56 57 53 58 66 66 72 71 74 78 81 85 96 106 110 129 118 119 119 117 116 104 90 81 79 83 85 85 87 88
46 47 50 52 54 58 58 61 62 60 56 58 59 61 61 63 64 68 78 90 103 109 97 115 118 131 133 133 115 89 88 89 86 83 86 90 94 99
45 49 51 54 61 60 64 65 65 64 64 60 55 57 59 58 58 69 81 97 117 119 104 83 104 138 135 128 103 99 101 98 108 99 95 93 94 100
50 50 55 58 57 57 64 68 71 71 75 75 68 60 58 59 61 69 84 100 110 123 94 107 121 105 83 95 100 112 120 123 124 118 102 96 91 95
49 58 63 68 69 69 69 67 61 66 72 72 72 70 69 71 76 82 87 96 110 118 116 100 116 113 85 110 109 129 130 137 137 134 124 103 91 83
57 65 71 72 70 69 70 71 69 66 69 74 77 78 81 84 90 92 94 101 109 117 118 106 108 108 109 116 129 121 121 125 123 131 121 104 94 96
59 64 66 68 71 69 62 60 61 62 65 72 78 82 88 95 103 111 114 118 125 122 116 109 104 102 101 114 135 132 132 124 118 102 100 104 111 108
58 64 68 67 64 63 61 61 64 66 70 76 83 88 96 104 112 115 124 131 131 132 123 108 99 96 103 107 117 138 126 121 123 116 112 111 112 111
65 67 71 74 76 75 73 69 69 67 72 77 85 94 102 111 119 122 132 130 123 134 139 125 127 117 106 106 125 127 133 133 122 122 111 113 106 103
68 73 74 75 76 77 75 73 68 71 75 83 90 98 109 118 127 133 132 125 120 131 133 136 129 128 119 110 93 121 117 126 129 123 119 118 137 113
64 69 72 74 75 76 75 72 75 76 82 88 95 104 112 121 128 135 132 127 123 123 126 128 121 109 115 120 128 95 118 131 136 134 114 111 122 144
64 69 72 73 74 76 74 73 76 81 86 92 101 108 116 124 134 131 131 125 122 123 125 120 111 104 105 130 152 169 116 115 117 129 131 127 136 138
69 72 71 71 73 74 72 72 76 84 90 98 106 114 122 129 132 129 132 133 124 122 124 123 127 122 125 124 123 140 158 126 114 118 124 121 135 142
72 73 71 70 72 72 72 73 80 87 95 102 110 119 127 128 127 136 135 126 126 124 130 131 129 129 118 110 121 131 141 152 153 127 105 109 123 129
73 73 72 72 72 71 70 74 82 91 98 106 115 124 126 123 136 140 131 128 128 128 121 137 138 127 121 115 115 122 124 131 131 136 141 105 98 103
Wind_Direction_500mb
116 117 116 108 115 129 134 126 121 340 298 277 300 304 304 305 304 305 304 303 304 303 302 303 302 300 300 302 304 305 303 300 295 291 292 291 288 284
103 98 90 84 79 88 92 83 65 1 302 286 297 305 311 313 312 310 309 308 307 307 308 309 308 308 308 309 307 307 303 300 296 293 293 291 288 284
99 98 92 83 77 70 63 46 18 346 327 312 306 308 308 309 312 316 316 317 316 317 319 320 320 321 319 315 311 308 305 301 298 295 294 291 288 286
95 92 84 73 64 47 34 25 4 344 338 329 324 326 325 326 324 323 324 324 322 324 326 325 324 326 320 317 317 311 305 300 296 294 293 290 289 287
83 77 72 64 53 36 22 11 3 354 347 339 332 330 328 327 325 326 326 326 327 329 329 326 331 327 323 324 318 314 308 303 301 297 292 289 287 285
70 62 52 42 35 22 13 5 356 347 344 337 334 331 331 332 330 330 328 331 330 333 328 330 329 325 325 321 319 313 308 310 303 296 292 288 286 284
57 49 38 26 21 14 6 359 353 349 343 339 336 334 335 335 334 334 331 331 330 334 328 327 326 323 324 321 319 313 318 311 301 295 293 291 289 287
45 35 27 17 9 10 5 359 354 349 342 338 338 336 335 335 333 334 332 332 327 329 326 320 324 324 323 324 319 321 315 312 304 296 290 288 286 285
33 26 18 11 1 355 356 349 346 345 341 338 336 337 332 334 330 326 327 326 322 323 323 321 327 320 324 321 320 319 314 310 308 301 294 291 288 286
22 15 9 4 1 350 351 346 344 342 340 338 333 329 326 326 324 321 322 321 316 321 326 317 325 323 323 316 317 317 318 316 314 303 294 291 288 285
15 9 4 1 359 353 347 342 339 336 335 334 329 325 322 321 318 319 323 323 322 323 326 317 316 318 317 317 318 320 320 315 317 307 298 294 291 289
10 3 1 359 355 351 346 342 337 335 333 330 329 326 322 320 321 324 328 326 325 320 321 315 317 316 312 309 311 322 318 320 318 311 299 295 293 290
360 1 358 356 350 344 339 337 336 328 328 323 323 325 326 328 328 329 330 327 322 315 320 316 311 309 293 299 304 318 318 318 315 311 308 301 295 288
356 355 353 349 342 338 335 333 329 323 320 324 327 328 329 329 329 327 324 322 321 317 321 321 308 307 298 291 291 304 302 301 300 301 298 294 290 290
350 346 343 339 336 332 327 322 318 320 325 327 328 330 331 330 329 330 328 327 325 323 323 322 314 305 294 288 290 296 301 299 295 294 294 288 286 284
341 341 340 334 327 324 324 325 327 330 330 329 329 329 328 329 328 330 329 330 327 329 331 322 317 308 294 290 292 293 294 289 293 290 288 286 283 279
335 332 330 328 330 332 331 328 327 329 330 330 329 328 328 329 329 330 330 328 320 321 326 332 331 317 301 294 292 291 293 293 294 295 294 290 285 281
328 329 329 329 330 329 327 325 327 329 331 329 328 329 329 329 329 329 329 323 315 317 315 318 313 309 304 297 290 293 293 294 296 295 293 289 288 285
322 324 326 329 329 328 326 326 326 329 330 330 330 330 329 328 328 327 326 320 313 309 307 309 305 303 302 300 305 299 296 295 296 295 293 289 286 286
326 328 328 328 328 327 327 325 327 328 329 329 329 329 328 328 327 324 321 313 308 305 302 302 300 298 298 298 301 304 299 294 293 292 290 289 284 284
331 329 328 328 327 327 326 326 326 327 328 329 329 328 328 328 324 322 316 312 306 302 300 302 303 307 303 300 296 296 301 299 294 289 289 287 285 286
329 326 327 327 327 328 327 327 326 327 328 329 327 327 328 327 323 319 314 306 304 302 300 303 307 308 306 301 298 299 302 306 309 303 295 284 277 277
328 325 326 327 328 327 327 326 326 327 329 328 328 328 328 324 324 319 311 307 305 304 305 308 310 311 308 306 304 303 305 306 307 309 310 309 300 289
Wind_Speed_850mb
37 33 27 26 18 12 9 3 2 7 11 15 20 30 38 43 49 50 55 59 62 65 69 72 74 77 80 80 74 64 62 64 67 72 74 73 73 76
33 25 26 26 22 20 17 12 9 4 8 16 28 38 44 50 55 58 61 65 70 71 73 74 74 78 80 73 71 68 71 76 77 77 78 78 80 83
42 36 34 29 23 18 15 12 10 12 18 25 34 39 45 52 57 62 70 75 77 79 78 79 78 76 67 66 68 75 73 74 75 75 75 76 78 80
42 32 31 24 18 18 16 16 16 20 27 35 43 50 55 65 72 77 81 81 86 84 84 81 75 69 65 75 74 76 74 73 75 75 73 74 77 77
36 30 27 21 20 23 28 32 36 39 42 47 53 57 64 73 80 84 86 87 87 87 83 77 73 76 79 80 80 79 80 81 80 77 75 76 76 78
34 32 31 32 35 35 37 39 40 43 48 51 56 62 71 77 84 90 96 93 97 94 81 78 91 92 91 89 85 85 85 82 76 72 75 80 83 85
34 35 36 38 43 45 44 46 49 53 53 54 58 70 76 83 86 89 93 96 97 80 85 108 105 108 102 97 93 91 85 82 80 80 81 82 84 87
41 40 41 43 47 50 49 51 51 52 54 58 65 71 75 75 79 81 86 94 82 81 111 120 114 120 111 109 106 100 89 83 81 83 85 86 88 89
44 47 48 50 50 52 50 54 56 57 53 58 66 66 72 71 74 78 81 85 96 106 110 129 118 119 119 117 116 104 90 81 79 83 85 85 87 88
46 47 50 52 54 58 58 61 62 60 56 58 59 61 61 63 64 68 78 90 103 109 97 115 118 131 133 133 115 89 88 89 86 83 86 90 94 99
45 49 51 54 61 60 64 65 65 64 64 60 55 57 59 58 58 69 81 97 117 119 104 83 104 138 135 128 103 99 101 98 108 99 95 93 94 100
50 50 55 58 57 57 64 68 71 71 75 75 68 60 58 59 61 69 84 100 110 123 94 107 121 105 83 95 100 112 120 123 124 118 102 96 91 95
49 58 63 68 69 69 69 67 61 66 72 72 72 70 69 71 76 82 87 96 110 118 116 100 116 113 85 110 109 129 130 137 137 134 124 103 91 83
57 65 71 72 70 69 70 71 69 66 69 74 77 78 81 84 90 92 94 101 109 117 118 106 108 108 109 116 129 121 121 125 123 131 121 104 94 96
59 64 66 68 71 69 62 60 61 62 65 72 78 82 88 95 103 111 114 118 125 122 116 109 104 102 101 114 135 132 132 124 118 102 100 104 111 108
58 64 68 67 64 63 61 61 64 66 70 76 83 88 96 104 112 115 124 131 131 132 123 108 99 96 103 107 117 138 126 121 123 116 112 111 112 111
65 67 71 74 76 75 73 69 69 67 72 77 85 94 102 111 119 122 132 130 123 134 139 125 127 117 106 106 125 127 133 133 122 122 111 113 106 103
68 73 74 75 76 77 75 73 68 71 75 83 90 98 109 118 127 133 132 125 120 131 133 136 129 128 119 110 93 121 117 126 129 123 119 118 137 113
64 69 72 74 75 76 75 72 75 76 82 88 95 104 112 121 128 135 132 127 123 123 126 128 121 109 115 120 128 95 118 131 136 134 114 111 122 144
64 69 72 73 74 76 74 73 76 81 86 92 101 108 116 124 134 131 131 125 122 123 125 120 111 104 105 130 152 169 116 115 117 129 131 127 136 138
69 72 71 71 73 74 72 72 76 84 90 98 106 114 122 129 132 129 132 133 124 122 124 123 127 122 125 124 123 140 158 126 114 118 124 121 135 142
72 73 71 70 72 72 72 73 80 87 95 102 110 119 127 128 127 136 135 126 126 124 130 131 129 129 118 110 121 131 141 152 153 127 105 109 123 129
73 73 72 72 72 71 70 74 82 91 98 106 115 124 126 123 136 140 131 128 128 128 121 137 138 127 121 115 115 122 124 131 131 136 141 105 98 103
Wind_Direction_850mb
116 117 116 108 115 129 134 126 121 340 298 277 300 304 304 305 304 305 304 303 304 303 302 303 302 300 300 302 304 305 303 300 295 291 292 291 288 284
103 98 90 84 79 88 92 83 65 1 302 286 297 305 311 313 312 310 309 308 307 307 308 309 308 308 308 309 307 307 303 300 296 293 293 291 288 284
99 98 92 83 77 70 63 46 18 346 327 312 306 308 308 309 312 316 316 317 316 317 319 320 320 321 319 315 311 308 305 301 298 295 294 291 288 286
95 92 84 73 64 47 34 25 4 344 338 329 324 326 325 326 324 323 324 324 322 324 326 325 324 326 320 317 317 311 305 300 296 294 293 290 289 287
83 77 72 64 53 36 22 11 3 354 347 339 332 330 328 327 325 326 326 326 327 329 329 326 331 327 323 324 318 314 308 303 301 297 292 289 287 285
70 62 52 42 35 22 13 5 356 347 344 337 334 331 331 332 330 330 328 331 330 333 328 330 329 325 325 321 319 313 308 310 303 296 292 288 286 284
57 49 38 26 21 14 6 359 353 349 343 339 336 334 335 335 334 334 331 331 330 334 328 327 326 323 324 321 319 313 318 311 301 295 293 291 289 287
45 35 27 17 9 10 5 359 354 349 342 338 338 336 335 335 333 334 332 332 327 329 326 320 324 324 323 324 319 321 315 312 304 296 290 288 286 285
33 26 18 11 1 355 356 349 346 345 341 338 336 337 332 334 330 326 327 326 322 323 323 321 327 320 324 321 320 319 314 310 308 301 294 291 288 286
22 15 9 4 1 350 351 346 344 342 340 338 333 329 326 326 324 321 322 321 316 321 326 317 325 323 323 316 317 317 318 316 314 303 294 291 288 285
15 9 4 1 359 353 347 342 339 336 335 334 329 325 322 321 318 319 323 323 322 323 326 317 316 318 317 317 318 320 320 315 317 307 298 294 291 289
10 3 1 359 355 351 346 342 337 335 333 330 329 326 322 320 321 324 328 326 325 320 321 315 317 316 312 309 311 322 318 320 318 311 299 295 293 290
360 1 358 356 350 344 339 337 336 328 328 323 323 325 326 328 328 329 330 327 322 315 320 316 311 309 293 299 304 318 318 318 315 311 308 301 295 288
356 355 353 349 342 338 335 333 329 323 320 324 327 328 329 329 329 327 324 322 321 317 321 321 308 307 298 291 291 304 302 301 300 301 298 294 290 290
350 346 343 339 336 332 327 322 318 320 325 327 328 330 331 330 329 330 328 327 325 323 323 322 314 305 294 288 290 296 301 299 295 294 294 288 286 284
341 341 340 334 327 324 324 325 327 330 330 329 329 329 328 329 328 330 329 330 327 329 331 322 317 308 294 290 292 293 294 289 293 290 288 286 283 279
335 332 330 328 330 332 331 328 327 329 330 330 329 328 328 329 329 330 330 328 320 321 326 332 331 317 301 294 292 291 293 293 294 295 294 290 285 281
328 329 329 329 330 329 327 325 327 329 331 329 328 329 329 329 329 329 329 323 315 317 315 318 313 309 304 297 290 293 293 294 296 295 293 289 288 285
322 324 326 329 329 328 326 326 326 329 330 330 330 330 329 328 328 327 326 320 313 309 307 309 305 303 302 300 305 299 296 295 296 295 293 289 286 286
326 328 328 328 328 327 327 325 327 328 329 329 329 329 328 328 327 324 321 313 308 305 302 302 300 298 298 298 301 304 299 294 293 292 290 289 284 284
331 329 328 328 327 327 326 326 326 327 328 329 329 328 328 328 324 322 316 312 306 302 300 302 303 307 303 300 296 296 301 299 294 289 289 287 285 286
329 326 327 327 327 328 327 327 326 327 328 329 327 327 328 327 323 319 314 306 304 302 300 303 307 308 306 301 298 299 302 306 309 303 295 284 277 277
328 325 326 327 328 327 327 326 326 327 329 328 328 328 328 324 324 319 311 307 305 304 305 308 310 311 308 306 304 303 305 306 307 309 310 309 300 289